{"data":{"norad_id":66651,"intl_designator":"2025-274B","name":"2025-274B","alt_names":[],"object_type":"PAYLOAD","status":"ACTIVE","operator":null,"country":"SKOR","launch_date":"2025-11-26","launch_site_code":"NSC","launch_vehicle":null,"mission":null,"orbit_class":"UNKNOWN","rcs_meters":null,"size_class":null,"mass_kg":null,"dimensions":null,"purposes":[],"wikipedia_slug":null,"has_3d_model":false,"image_url":null,"decayed_at":null,"tle_current":{"epoch":"2026-09-20T14:19:15.229056Z","epoch_age_seconds":112652,"freshness":"FRESH","line1":"1 66651U 25274B   26263.59670404  .00001593  00000+0  15600-3 0  9990","line2":"2 66651  97.7475 191.3341 0013057  40.5099 319.7090 14.93627051 44454","mean_motion":14.93627051,"eccentricity":0.0013057,"inclination_deg":97.7475,"raan_deg":191.3341,"arg_perigee_deg":40.5099,"mean_anomaly_deg":319.709,"bstar":0.000156,"rev_number":4445,"period_min":96.409609014238,"perigee_km":577.54361395624,"apogee_km":595.73142613789,"semimajor_km":6964.7745200471,"source":"CELESTRAK","updated_at":"2026-09-21T09:00:16.115033Z"}}}